Regional Weather Roundup
Issued by NWS

Home | Current Version | Previous Version | Text Only | Print | Product List | Glossary On
Versions: 1 2 3 4 5 6 7 8 9 10 11 12 13 14 15 16 17 18 19 20 21 22 23 24 25 26 27 28 29 30 31 32 33 34 35 36 37 38 39 40 41 42 43 44 45 46 47 48 49 50
962
ASUS46 KPQR 291010
RWROR

OREGON REGIONAL WEATHER ROUNDUP
NATIONAL WEATHER SERVICE PORTLAND OR
300 AM PDT FRI JUL 29 2016

NOTE: "FAIR" INDICATES FEW OR NO CLOUDS BELOW 12,000 FEET WITH
NO SIGNIFICANT WEATHER AND/OR OBSTRUCTIONS TO VISIBILITY.

ORZ001>013-291100-
NORTHWEST OREGON


CITY           SKY/WX    TMP DP  RH WIND       PRES   REMARKS
ASTORIA        CLOUDY    61  57  87 W7        30.04F
NEWPORT        CLOUDY    52  52 100 CALM      30.06S
PORTLAND       CLEAR     70  57  63 NW5       29.97S
VANCOUVER WA   CLEAR     70  57  63 CALM      29.96S
SCAPPOOSE      CLEAR     66  55  67 CALM      29.96R
HILLSBORO      CLEAR     67  32  27 CALM      29.97R
AURORA         CLEAR     64  57  78 CALM      29.98R
MCMINNVILLE    CLEAR     63  56  78 W5        29.98S
SALEM          CLEAR     65  57  75 CALM      29.96S
CORVALLIS        N/A     63  55  77 NW9       29.98R
EUGENE         CLEAR     61  56  83 NW6       29.97S
$$

ORZ021-028-291100-
SOUTHWEST OREGON


CITY           SKY/WX    TMP DP  RH WIND       PRES   REMARKS
NORTH BEND     CLOUDY    55  55 100 N10       30.01F
BROOKINGS      CLEAR     56  54  93 CALM      29.87S
ROSEBURG       CLEAR     70  58  65 CALM      29.95S
SEXTON SUMMIT  CLEAR     65  51  60 N12       30.08S
MEDFORD        CLEAR     72  55  55 E3        29.94S
$$

ORZ014>016-041-291100-
COLUMBIA GORGE


CITY           SKY/WX    TMP DP  RH WIND       PRES   REMARKS
TROUTDALE      CLEAR     64  61  90 CALM      29.96S
THE DALLES     CLEAR     77  58  51 NW9       29.89S
$$

ORZ029>031-041-044-049-050-061>064-502-503-505>511-291100-
EASTERN OREGON


CITY           SKY/WX    TMP DP  RH WIND       PRES   REMARKS
REDMOND        CLEAR     59  43  55 SE5       30.05S
BEND           CLEAR     64  48  55 CALM      30.08R
PRINEVILLE     CLEAR     57  46  67 S5        30.06S
KLAMATH FALLS  CLEAR     69  56  62 NW6       30.08S
LAKEVIEW       CLEAR    N/A N/A N/A N13       30.14S
HERMISTON      CLEAR     69  50  50 S3        29.89R
PENDLETON      CLEAR     68  46  45 CALM      29.94R
JOHN DAY       CLEAR     68  44  41 E7        30.08F
MEACHAM        CLEAR     51  46  83 CALM      30.09S
LA GRANDE      CLEAR     64  43  45 NW7       30.01S
BAKER CITY     CLEAR     59  48  67 SW6       30.05F
BURNS          CLEAR     61  40  45 W6        30.10S
ROME             N/A     70  36  28 NE7       30.06S
ONTARIO        CLEAR     71  53  52 SW3       29.95R
$$




USA.gov is the U.S. government's official web portal to all federal, state and local government web resources and services.